When you browse on this site, cookies collect data to enhance your experience and personalize the content and advertising you see.
Visit our Privacy Policy to learn more. By continuing to use the site, you agree to this use of cookies and data.
  • en France
  • Liste des pays
  • À 7 jours
  • Température de l'eau
  • Carte satellitaire
  • Carte météo
  • Widgets météo
  • user-avatar
    Se connecter

    Météo par heure à Sevan

    Ce jour, 19 Janvier, Samedi

    Heure Température Précipitation Vent Pression Humidité
    00:00 -8°C° 0 mm 1 m/s 640 mmHg 66%
    01:00 -8°C° 0 mm 1 m/s 640 mmHg 66%
    02:00 -8°C° 0 mm 1 m/s 639 mmHg 66%
    03:00 -8°C° 0 mm 1 m/s 639 mmHg 66%
    04:00 -8°C° 0 mm 1 m/s 639 mmHg 65%
    05:00 -8°C° 0 mm 1 m/s 639 mmHg 65%
    06:00 -8°C° 0 mm 1 m/s 639 mmHg 64%
    07:00 -7°C° 0 mm 1 m/s 639 mmHg 64%
    08:00 -7°C° 0 mm 1 m/s 639 mmHg 63%
    09:00 -6°C° 0 mm 1 m/s 640 mmHg 62%
    10:00 -3°C° 0 mm 1 m/s 640 mmHg 62%
    11:00 -2°C° 0 mm 1 m/s 640 mmHg 61%
    12:00 -3°C° 0 mm 2 m/s 640 mmHg 61%
    13:00 -3°C° 0 mm 2 m/s 639 mmHg 61%
    14:00 -1°C° 0 mm 1 m/s 639 mmHg 62%
    15:00 -1°C° 0 mm 1 m/s 639 mmHg 62%
    16:00 -2°C° 0 mm 1 m/s 639 mmHg 59%
    17:00 -4°C° 0 mm 1 m/s 639 mmHg 56%
    18:00 -7°C° 0 mm 1 m/s 639 mmHg 53%
    19:00 -7°C° 0 mm 1 m/s 639 mmHg 52%
    20:00 -7°C° 0 mm 1 m/s 639 mmHg 51%
    21:00 -7°C° 0 mm 1 m/s 639 mmHg 51%
    22:00 -7°C° 0 mm 1 m/s 639 mmHg 52%
    23:00 -7°C° 0 mm 1 m/s 640 mmHg 53%

    Demain, 20 Janvier, Dimanche

    Heure Température Précipitation Vent Pression Humidité
    00:00 -7°C° 0 mm 1 m/s 640 mmHg 54%
    01:00 -7°C° 0 mm 1 m/s 640 mmHg 54%
    02:00 -7°C° 0 mm 1 m/s 640 mmHg 54%
    03:00 -7°C° 0 mm 1 m/s 640 mmHg 55%
    04:00 -7°C° 0 mm 1 m/s 640 mmHg 55%
    05:00 -7°C° 0 mm 1 m/s 640 mmHg 54%
    06:00 -8°C° 0 mm 1 m/s 640 mmHg 54%
    07:00 -7°C° 0 mm 1 m/s 641 mmHg 55%
    08:00 -6°C° 0 mm 1 m/s 641 mmHg 56%
    09:00 -4°C° 0 mm 1 m/s 642 mmHg 56%
    10:00 -3°C° 0 mm 1 m/s 642 mmHg 56%
    11:00 -2°C° 0 mm 1 m/s 642 mmHg 55%
    12:00 0°C° 0 mm 1 m/s 642 mmHg 54%
    13:00 0°C° 0 mm 1 m/s 641 mmHg 56%
    14:00 0°C° 0 mm 1 m/s 641 mmHg 57%
    15:00 0°C° 0 mm 1 m/s 641 mmHg 59%
    16:00 -2°C° 0 mm 1 m/s 641 mmHg 57%
    17:00 -3°C° 0 mm 1 m/s 641 mmHg 55%
    18:00 -6°C° 0 mm 1 m/s 641 mmHg 54%
    19:00 -6°C° 0 mm 1 m/s 641 mmHg 52%
    20:00 -6°C° 0 mm 1 m/s 641 mmHg 50%
    21:00 -7°C° 0 mm 1 m/s 641 mmHg 48%
    22:00 -7°C° 0 mm 1 m/s 641 mmHg 48%
    23:00 -7°C° 0 mm 1 m/s 641 mmHg 48%

    Après-demain, 21 Janvier, Lundi

    Heure Température Précipitation Vent Pression Humidité
    00:00 -8°C° 0 mm 1 m/s 641 mmHg 48%
    01:00 -8°C° 0 mm 1 m/s 641 mmHg 49%
    02:00 -8°C° 0 mm 1 m/s 641 mmHg 50%
    03:00 -8°C° 0 mm 1 m/s 641 mmHg 51%
    04:00 -8°C° 0 mm 1 m/s 641 mmHg 52%
    05:00 -8°C° 0 mm 1 m/s 641 mmHg 53%
    06:00 -8°C° 0 mm 1 m/s 641 mmHg 54%
    07:00 -7°C° 0 mm 1 m/s 641 mmHg 55%
    08:00 -7°C° 0 mm 1 m/s 641 mmHg 56%
    09:00 -6°C° 0 mm 1 m/s 642 mmHg 57%
    10:00 -6°C° 0 mm 2 m/s 641 mmHg 56%
    11:00 -4°C° 0 mm 2 m/s 641 mmHg 56%
    12:00 -3°C° 0 mm 2 m/s 641 mmHg 55%
    13:00 -3°C° 0 mm 2 m/s 641 mmHg 56%
    14:00 -3°C° 0 mm 2 m/s 640 mmHg 57%
    15:00 -3°C° 0 mm 2 m/s 640 mmHg 57%
    16:00 -5°C° 0 mm 2 m/s 639 mmHg 55%
    17:00 -6°C° 0 mm 2 m/s 639 mmHg 52%
    18:00 -8°C° 0 mm 2 m/s 639 mmHg 50%
    19:00 -8°C° 0 mm 2 m/s 639 mmHg 49%
    20:00 -8°C° 0 mm 2 m/s 639 mmHg 49%
    21:00 -7°C° 0 mm 1 m/s 639 mmHg 49%
    22:00 -7°C° 0 mm 1 m/s 639 mmHg 51%
    23:00 -7°C° 0 mm 1 m/s 639 mmHg 52%

    22 Janvier, Mardi

    Heure Température Précipitation Vent Pression Humidité
    00:00 -7°C° 0 mm 1 m/s 639 mmHg 54%
    01:00 -8°C° 0 mm 1 m/s 639 mmHg 55%
    02:00 -8°C° 0 mm 1 m/s 639 mmHg 56%
    03:00 -8°C° 0 mm 1 m/s 639 mmHg 57%
    04:00 -8°C° 0 mm 1 m/s 639 mmHg 57%
    05:00 -8°C° 0 mm 1 m/s 638 mmHg 57%
    06:00 -8°C° 0 mm 1 m/s 638 mmHg 57%
    07:00 -7°C° 0 mm 1 m/s 639 mmHg 57%
    08:00 -7°C° 0 mm 1 m/s 639 mmHg 57%
    09:00 -6°C° 0 mm 1 m/s 639 mmHg 58%
    10:00 -5°C° 0 mm 2 m/s 639 mmHg 58%
    11:00 -4°C° 0 mm 2 m/s 639 mmHg 58%
    12:00 -3°C° 0 mm 2 m/s 639 mmHg 57%
    13:00 -3°C° 0 mm 2 m/s 638 mmHg 58%
    14:00 -2°C° 0 mm 2 m/s 638 mmHg 59%
    15:00 -2°C° 0 mm 2 m/s 638 mmHg 60%
    16:00 -4°C° 0 mm 2 m/s 638 mmHg 58%
    17:00 -3°C° 0 mm 1 m/s 638 mmHg 56%
    18:00 -4°C° 0 mm 1 m/s 638 mmHg 55%
    19:00 -6°C° 0 mm 1 m/s 638 mmHg 54%
    20:00 -6°C° 0 mm 1 m/s 638 mmHg 54%
    21:00 -6°C° 0 mm 1 m/s 638 mmHg 54%
    22:00 -6°C° 0 mm 1 m/s 638 mmHg 55%
    23:00 -7°C° 0 mm 1 m/s 638 mmHg 56%

    23 Janvier, Mercredi

    Heure Température Précipitation Vent Pression Humidité
    00:00 -7°C° 0 mm 1 m/s 638 mmHg 57%
    01:00 -7°C° 0 mm 1 m/s 638 mmHg 58%
    02:00 -7°C° 0 mm 1 m/s 638 mmHg 59%
    03:00 -7°C° 0 mm 1 m/s 638 mmHg 60%
    04:00 -8°C° 0 mm 2 m/s 638 mmHg 60%
    05:00 -9°C° 0 mm 2 m/s 638 mmHg 60%
    06:00 -9°C° 0 mm 2 m/s 638 mmHg 60%
    07:00 -8°C° 0 mm 2 m/s 638 mmHg 60%
    08:00 -7°C° 0 mm 2 m/s 639 mmHg 60%
    09:00 -6°C° 0 mm 2 m/s 639 mmHg 60%
    10:00 -5°C° 0 mm 2 m/s 639 mmHg 62%
    11:00 -4°C° 0 mm 2 m/s 639 mmHg 63%
    12:00 -3°C° 0 mm 2 m/s 639 mmHg 64%
    13:00 -2°C° 0 mm 2 m/s 639 mmHg 64%
    14:00 -2°C° 0 mm 2 m/s 639 mmHg 65%
    15:00 -2°C° 0 mm 2 m/s 638 mmHg 66%
    16:00 -4°C° 0 mm 2 m/s 638 mmHg 65%
    17:00 -5°C° 0 mm 2 m/s 639 mmHg 65%
    18:00 -6°C° 0 mm 2 m/s 639 mmHg 65%
    19:00 -6°C° 0 mm 2 m/s 639 mmHg 65%
    20:00 -6°C° 0 mm 2 m/s 639 mmHg 65%
    21:00 -7°C° 0 mm 2 m/s 639 mmHg 65%
    22:00 -7°C° 0 mm 2 m/s 639 mmHg 67%
    23:00 -7°C° 0 mm 2 m/s 639 mmHg 69%

    24 Janvier, Jeudi

    Heure Température Précipitation Vent Pression Humidité
    00:00 -7°C° 0 mm 2 m/s 640 mmHg 71%
    01:00 -7°C° 0 mm 2 m/s 639 mmHg 71%
    02:00 -7°C° 0 mm 2 m/s 639 mmHg 72%
    03:00 -7°C° 0 mm 2 m/s 639 mmHg 73%
    04:00 -7°C° 0 mm 2 m/s 639 mmHg 73%
    05:00 -8°C° 0 mm 2 m/s 639 mmHg 73%
    06:00 -8°C° 0 mm 2 m/s 639 mmHg 73%
    07:00 -7°C° 0 mm 2 m/s 639 mmHg 72%
    08:00 -6°C° 0 mm 2 m/s 640 mmHg 71%
    09:00 -5°C° 0 mm 2 m/s 640 mmHg 70%
    10:00 -4°C° 0 mm 2 m/s 640 mmHg 69%
    11:00 -3°C° 0 mm 2 m/s 639 mmHg 68%
    12:00 -2°C° 0 mm 3 m/s 639 mmHg 67%
    13:00 -1°C° 0 mm 3 m/s 639 mmHg 67%
    14:00 -1°C° 0 mm 3 m/s 638 mmHg 67%
    15:00 -1°C° 0 mm 3 m/s 638 mmHg 66%
    16:00 -2°C° 0 mm 3 m/s 638 mmHg 67%
    17:00 -3°C° 0 mm 2 m/s 638 mmHg 67%
    18:00 -5°C° 0 mm 2 m/s 638 mmHg 67%
    19:00 -4°C° 0 mm 2 m/s 638 mmHg 69%
    20:00 -4°C° 0 mm 2 m/s 638 mmHg 70%
    21:00 -4°C° 0 mm 2 m/s 638 mmHg 72%
    22:00 -4°C° 0 mm 2 m/s 638 mmHg 73%
    23:00 -4°C° 0 mm 2 m/s 638 mmHg 74%
    Voir plus